Time,TemperatureF,DewpointF,PressureIn,WindDirection,WindDirectionDegrees,WindSpeedMPH,WindSpeedGustMPH,Humidity,HourlyPrecipIn,Conditions,Clouds,dailyrainin,SoftwareType,DateUTC
2013-01-30 00:02:00,59.5,54.7,30.12,South,180,0.0,6.9,84,0.00,,,0.00,WUHU216HW,2013-01-30 05:02:00,
2013-01-30 00:07:00,59.5,54.7,30.11,SE,135,0.0,6.9,84,0.00,,,0.00,WUHU216HW,2013-01-30 05:07:00,
2013-01-30 00:12:00,59.5,55.0,30.11,SSE,158,7.1,7.1,85,0.00,,,0.00,WUHU216HW,2013-01-30 05:12:00,
2013-01-30 00:17:00,59.5,55.0,30.11,SE,135,0.0,7.1,85,0.00,,,0.00,WUHU216HW,2013-01-30 05:17:00,
2013-01-30 00:22:00,59.5,55.0,30.11,SE,135,0.0,7.1,85,0.00,,,0.00,WUHU216HW,2013-01-30 05:22:00,
2013-01-30 00:27:00,59.5,55.0,30.11,SE,135,8.2,8.2,85,0.00,,,0.00,WUHU216HW,2013-01-30 05:27:00,
2013-01-30 00:32:00,59.5,55.0,30.10,South,180,1.1,8.2,85,0.00,,,0.00,WUHU216HW,2013-01-30 05:32:00,
2013-01-30 00:37:00,59.5,55.0,30.10,South,180,3.1,8.2,85,0.00,,,0.00,WUHU216HW,2013-01-30 05:37:00,
2013-01-30 00:42:00,59.5,55.0,30.09,ESE,113,3.8,6.4,85,0.00,,,0.00,WUHU216HW,2013-01-30 05:42:00,
2013-01-30 00:47:00,59.7,55.2,30.09,SSE,158,7.3,7.3,85,0.00,,,0.00,WUHU216HW,2013-01-30 05:47:00,
2013-01-30 00:52:00,59.7,55.2,30.08,ESE,113,6.7,12.5,85,0.00,,,0.00,WUHU216HW,2013-01-30 05:52:00,
2013-01-30 00:57:00,59.9,55.7,30.09,South,180,2.2,12.5,86,0.00,,,0.00,WUHU216HW,2013-01-30 05:57:00,
2013-01-30 01:02:00,59.9,55.7,30.08,SSE,158,9.3,9.3,86,0.00,,,0.00,WUHU216HW,2013-01-30 06:02:00,
2013-01-30 01:07:00,60.0,55.9,30.08,SSE,158,3.5,9.3,86,0.00,,,0.00,WUHU216HW,2013-01-30 06:07:00,
2013-01-30 01:12:00,60.0,55.9,30.08,SE,135,7.8,14.3,86,0.00,,,0.00,WUHU216HW,2013-01-30 06:12:00,
2013-01-30 01:17:00,60.0,55.5,30.09,SSE,158,0.0,14.3,85,0.00,,,0.00,WUHU216HW,2013-01-30 06:17:00,
2013-01-30 01:22:00,60.0,55.5,30.08,SE,135,13.6,13.6,85,0.00,,,0.00,WUHU216HW,2013-01-30 06:22:00,
2013-01-30 01:27:00,59.9,55.5,30.09,South,180,5.1,13.6,85,0.00,,,0.00,WUHU216HW,2013-01-30 06:27:00,
2013-01-30 01:32:00,60.0,55.5,30.09,SE,135,5.3,9.6,85,0.00,,,0.00,WUHU216HW,2013-01-30 06:32:00,
2013-01-30 01:37:00,60.0,55.5,30.09,ESE,113,0.0,9.6,85,0.00,,,0.00,WUHU216HW,2013-01-30 06:37:00,
2013-01-30 01:42:00,59.9,55.4,30.08,SSE,158,1.7,3.5,85,0.00,,,0.00,WUHU216HW,2013-01-30 06:42:00,
2013-01-30 01:47:00,59.9,55.4,30.08,ESE,113,6.2,6.2,85,0.00,,,0.00,WUHU216HW,2013-01-30 06:47:00,
2013-01-30 01:52:00,60.0,55.5,30.09,SE,135,3.3,6.2,85,0.00,,,0.00,WUHU216HW,2013-01-30 06:52:00,
2013-01-30 01:57:00,60.0,55.5,30.08,East,90,9.8,18.3,85,0.00,,,0.00,WUHU216HW,2013-01-30 06:57:00,
2013-01-30 02:02:00,60.0,55.2,30.08,SE,135,0.0,18.3,84,0.00,,,0.00,WUHU216HW,2013-01-30 07:02:00,
2013-01-30 02:07:00,60.0,55.2,30.08,SE,135,6.0,9.8,84,0.00,,,0.00,WUHU216HW,2013-01-30 07:07:00,
2013-01-30 02:12:00,60.0,55.2,30.08,SSE,158,5.5,8.9,84,0.00,,,0.00,WUHU216HW,2013-01-30 07:12:00,
2013-01-30 02:17:00,60.0,55.2,30.08,South,180,0.0,8.9,84,0.00,,,0.00,WUHU216HW,2013-01-30 07:17:00,
2013-01-30 02:22:00,60.0,55.2,30.08,SE,135,6.2,6.2,84,0.00,,,0.00,WUHU216HW,2013-01-30 07:22:00,
2013-01-30 02:27:00,60.0,55.2,30.08,SSE,158,0.0,6.2,84,0.00,,,0.00,WUHU216HW,2013-01-30 07:27:00,
2013-01-30 02:32:00,60.0,55.2,30.07,South,180,0.0,3.8,84,0.00,,,0.00,WUHU216HW,2013-01-30 07:32:00,
2013-01-30 02:37:00,60.0,55.2,30.06,SSE,158,0.0,2.0,84,0.00,,,0.00,WUHU216HW,2013-01-30 07:37:00,
2013-01-30 02:42:00,60.0,55.2,30.06,SSE,158,4.0,8.2,84,0.00,,,0.00,WUHU216HW,2013-01-30 07:42:00,
2013-01-30 02:47:00,60.0,55.2,30.06,South,180,0.0,8.2,84,0.00,,,0.00,WUHU216HW,2013-01-30 07:47:00,
2013-01-30 02:52:00,60.0,55.2,30.06,SSE,158,0.0,4.0,84,0.00,,,0.00,WUHU216HW,2013-01-30 07:52:00,
2013-01-30 02:57:00,60.0,55.2,30.05,SE,135,4.6,5.3,84,0.00,,,0.00,WUHU216HW,2013-01-30 07:57:00,
2013-01-30 03:02:00,60.0,55.2,30.05,SSE,158,3.5,9.1,84,0.00,,,0.00,WUHU216HW,2013-01-30 08:02:00,
2013-01-30 03:07:00,60.0,54.9,30.06,SE,135,7.6,9.1,83,0.00,,,0.00,WUHU216HW,2013-01-30 08:07:00,
2013-01-30 03:12:00,60.0,54.9,30.06,SE,135,1.1,7.6,83,0.00,,,0.00,WUHU216HW,2013-01-30 08:12:00,
2013-01-30 03:17:00,60.0,54.9,30.06,SSE,158,0.0,6.0,83,0.00,,,0.00,WUHU216HW,2013-01-30 08:17:00,
2013-01-30 03:22:00,60.0,54.9,30.05,South,180,6.0,7.6,83,0.00,,,0.00,WUHU216HW,2013-01-30 08:22:00,
2013-01-30 03:27:00,60.0,54.9,30.05,East,90,0.0,7.6,83,0.00,,,0.00,WUHU216HW,2013-01-30 08:27:00,
2013-01-30 03:32:00,60.0,54.6,30.04,ESE,113,4.6,6.7,82,0.00,,,0.00,WUHU216HW,2013-01-30 08:32:00,
2013-01-30 03:37:00,60.0,54.6,30.04,South,180,1.7,6.7,82,0.00,,,0.00,WUHU216HW,2013-01-30 08:37:00,
2013-01-30 03:42:00,60.0,54.6,30.04,SSE,158,3.1,7.3,82,0.00,,,0.00,WUHU216HW,2013-01-30 08:42:00,
2013-01-30 03:47:00,60.0,54.2,30.04,SSE,158,2.2,7.3,81,0.00,,,0.00,WUHU216HW,2013-01-30 08:47:00,
2013-01-30 03:52:00,60.0,54.2,30.03,ESE,113,6.0,6.0,81,0.00,,,0.00,WUHU216HW,2013-01-30 08:52:00,
2013-01-30 03:57:00,59.9,54.1,30.03,SSE,158,6.2,6.2,81,0.00,,,0.00,WUHU216HW,2013-01-30 08:57:00,
2013-01-30 04:02:00,59.9,54.1,30.03,SSE,158,0.0,6.2,81,0.00,,,0.00,WUHU216HW,2013-01-30 09:02:00,
2013-01-30 04:07:00,59.9,54.1,30.02,SSE,158,4.9,8.5,81,0.00,,,0.00,WUHU216HW,2013-01-30 09:07:00,
2013-01-30 04:12:00,59.9,53.7,30.02,SSE,158,5.1,8.5,80,0.00,,,0.00,WUHU216HW,2013-01-30 09:12:00,
2013-01-30 04:17:00,59.7,53.6,30.02,SSW,203,10.9,10.9,80,0.00,,,0.00,WUHU216HW,2013-01-30 09:17:00,
2013-01-30 04:22:00,59.7,53.6,30.02,SSE,158,3.3,13.4,80,0.00,,,0.00,WUHU216HW,2013-01-30 09:22:00,
2013-01-30 04:27:00,59.5,53.4,30.02,ESE,113,7.3,13.4,80,0.00,,,0.00,WUHU216HW,2013-01-30 09:27:00,
2013-01-30 04:32:00,59.5,53.7,30.02,SE,135,4.4,7.3,81,0.00,,,0.00,WUHU216HW,2013-01-30 09:32:00,
2013-01-30 04:37:00,59.5,53.7,30.01,South,180,0.0,8.2,81,0.00,,,0.00,WUHU216HW,2013-01-30 09:37:00,
2013-01-30 04:42:00,59.3,53.5,30.02,SSE,158,5.1,10.2,81,0.00,,,0.00,WUHU216HW,2013-01-30 09:42:00,
2013-01-30 04:47:00,59.3,53.8,30.01,ESE,113,9.1,10.2,82,0.00,,,0.00,WUHU216HW,2013-01-30 09:47:00,
2013-01-30 04:52:00,59.3,53.8,30.01,SE,135,7.6,9.1,82,0.00,,,0.00,WUHU216HW,2013-01-30 09:52:00,
2013-01-30 04:57:00,59.3,53.8,30.01,SSE,158,7.3,9.1,82,0.00,,,0.00,WUHU216HW,2013-01-30 09:57:00,
2013-01-30 05:02:00,59.3,53.8,30.01,SSE,158,0.0,7.6,82,0.00,,,0.00,WUHU216HW,2013-01-30 10:02:00,
2013-01-30 05:07:00,59.3,53.8,30.01,SE,135,8.9,8.9,82,0.00,,,0.00,WUHU216HW,2013-01-30 10:07:00,
2013-01-30 05:12:00,59.5,54.0,30.01,SSE,158,2.4,8.9,82,0.00,,,0.00,WUHU216HW,2013-01-30 10:12:00,
2013-01-30 05:17:00,59.5,54.0,30.00,SSE,158,10.9,10.9,82,0.00,,,0.00,WUHU216HW,2013-01-30 10:17:00,
2013-01-30 05:22:00,59.5,54.0,29.99,SE,135,2.2,10.9,82,0.00,,,0.00,WUHU216HW,2013-01-30 10:22:00,
2013-01-30 05:27:00,59.7,54.2,29.99,SSE,158,0.0,8.5,82,0.00,,,0.00,WUHU216HW,2013-01-30 10:27:00,
2013-01-30 05:32:00,59.7,54.2,29.99,SSE,158,0.0,8.5,82,0.00,,,0.00,WUHU216HW,2013-01-30 10:32:00,
2013-01-30 05:37:00,59.9,54.1,29.99,SSE,158,3.5,3.5,81,0.00,,,0.00,WUHU216HW,2013-01-30 10:37:00,
2013-01-30 05:42:00,60.0,54.2,29.99,South,180,4.4,11.1,81,0.00,,,0.00,WUHU216HW,2013-01-30 10:42:00,
2013-01-30 05:47:00,60.0,54.2,29.98,SE,135,6.7,11.1,81,0.00,,,0.00,WUHU216HW,2013-01-30 10:47:00,
2013-01-30 05:52:00,60.0,54.2,29.98,SSE,158,0.2,6.7,81,0.00,,,0.00,WUHU216HW,2013-01-30 10:52:00,
2013-01-30 05:57:00,60.0,54.6,29.98,South,180,1.1,4.0,82,0.00,,,0.00,WUHU216HW,2013-01-30 10:57:00,
2013-01-30 06:02:00,60.0,54.6,29.99,SSE,158,0.0,5.3,82,0.00,,,0.00,WUHU216HW,2013-01-30 11:02:00,
2013-01-30 06:07:00,60.0,54.6,29.98,SSE,158,7.8,7.8,82,0.00,,,0.00,WUHU216HW,2013-01-30 11:07:00,
2013-01-30 06:12:00,59.9,54.7,29.98,ESE,113,4.6,7.8,83,0.00,,,0.00,WUHU216HW,2013-01-30 11:12:00,
2013-01-30 06:17:00,60.0,54.9,29.98,South,180,6.7,7.8,83,0.00,,,0.00,WUHU216HW,2013-01-30 11:17:00,
2013-01-30 06:22:00,60.0,54.9,29.98,SW,225,7.6,7.8,83,0.00,,,0.00,WUHU216HW,2013-01-30 11:22:00,
2013-01-30 06:28:00,59.9,55.0,29.96,SE,135,4.0,14.3,84,0.00,,,0.00,WUHU216HW,2013-01-30 11:28:00,
2013-01-30 06:33:00,59.9,55.0,29.96,ESE,113,13.8,14.3,84,0.00,,,0.00,WUHU216HW,2013-01-30 11:33:00,
2013-01-30 06:38:00,59.9,55.0,29.96,SE,135,7.3,13.8,84,0.00,,,0.00,WUHU216HW,2013-01-30 11:38:00,
2013-01-30 06:43:00,59.9,55.0,29.96,SSE,158,4.0,12.3,84,0.00,,,0.00,WUHU216HW,2013-01-30 11:43:00,
2013-01-30 06:48:00,59.9,54.7,29.96,ESE,113,6.7,9.6,83,0.00,,,0.00,WUHU216HW,2013-01-30 11:48:00,
2013-01-30 06:53:00,59.9,54.7,29.96,South,180,2.4,9.8,83,0.00,,,0.00,WUHU216HW,2013-01-30 11:53:00,
2013-01-30 06:58:00,59.9,54.4,29.96,SSE,158,2.6,9.8,82,0.00,,,0.00,WUHU216HW,2013-01-30 11:58:00,
2013-01-30 07:03:00,59.9,54.4,29.96,ESE,113,8.2,8.2,82,0.00,,,0.00,WUHU216HW,2013-01-30 12:03:00,
2013-01-30 07:08:00,59.9,54.4,29.95,South,180,0.0,8.2,82,0.00,,,0.00,WUHU216HW,2013-01-30 12:08:00,
2013-01-30 07:13:00,59.9,54.4,29.95,East,90,7.6,8.2,82,0.00,,,0.00,WUHU216HW,2013-01-30 12:13:00,
2013-01-30 07:18:00,59.9,54.4,29.95,SSE,158,0.0,7.6,82,0.00,,,0.00,WUHU216HW,2013-01-30 12:18:00,
2013-01-30 07:23:00,59.7,54.2,29.95,SE,135,6.0,6.2,82,0.00,,,0.00,WUHU216HW,2013-01-30 12:23:00,
2013-01-30 07:28:00,59.9,54.4,29.94,SE,135,0.0,6.2,82,0.00,,,0.00,WUHU216HW,2013-01-30 12:28:00,
2013-01-30 07:33:00,59.7,54.2,29.93,SE,135,13.4,13.4,82,0.00,,,0.00,WUHU216HW,2013-01-30 12:33:00,
2013-01-30 07:38:00,59.7,54.5,29.93,SE,135,0.0,13.4,83,0.00,,,0.00,WUHU216HW,2013-01-30 12:38:00,
2013-01-30 07:43:00,59.7,54.5,29.93,SSE,158,6.4,13.4,83,0.00,,,0.00,WUHU216HW,2013-01-30 12:43:00,
2013-01-30 07:48:00,59.7,54.8,29.94,South,180,0.2,6.4,84,0.00,,,0.00,WUHU216HW,2013-01-30 12:48:00,
2013-01-30 07:53:00,59.7,54.8,29.93,SSE,158,3.8,5.3,84,0.00,,,0.00,WUHU216HW,2013-01-30 12:53:00,
2013-01-30 07:58:00,59.9,55.0,29.93,South,180,0.0,10.2,84,0.00,,,0.00,WUHU216HW,2013-01-30 12:58:00,
2013-01-30 08:03:00,60.0,55.2,29.93,SSE,158,6.9,10.2,84,0.00,,,0.00,WUHU216HW,2013-01-30 13:03:00,
2013-01-30 08:08:00,60.0,55.5,29.93,ESE,113,7.1,7.1,85,0.00,,,0.00,WUHU216HW,2013-01-30 13:08:00,
2013-01-30 08:13:00,60.2,55.7,29.93,SSE,158,8.2,8.2,85,0.00,,,0.00,WUHU216HW,2013-01-30 13:13:00,
2013-01-30 08:18:00,60.4,55.9,29.92,SSE,158,6.2,8.2,85,0.00,,,0.00,WUHU216HW,2013-01-30 13:18:00,
2013-01-30 08:23:00,60.4,55.9,29.92,SE,135,10.2,11.4,85,0.00,,,0.00,WUHU216HW,2013-01-30 13:23:00,
2013-01-30 08:28:00,60.6,56.1,29.92,ESE,113,10.5,11.4,85,0.00,,,0.00,WUHU216HW,2013-01-30 13:28:00,
2013-01-30 08:33:00,60.6,55.7,29.93,SSE,158,3.3,10.5,84,0.00,,,0.00,WUHU216HW,2013-01-30 13:33:00,
2013-01-30 08:38:00,60.6,55.7,29.93,East,90,3.5,7.8,84,0.00,,,0.00,WUHU216HW,2013-01-30 13:38:00,
2013-01-30 08:43:00,60.8,55.9,29.93,SE,135,0.0,11.1,84,0.00,,,0.00,WUHU216HW,2013-01-30 13:43:00,
2013-01-30 08:48:00,60.9,56.1,29.93,SE,135,1.7,11.1,84,0.00,,,0.00,WUHU216HW,2013-01-30 13:48:00,
2013-01-30 08:53:00,60.9,56.1,29.93,South,180,0.0,10.0,84,0.00,,,0.00,WUHU216HW,2013-01-30 13:53:00,
2013-01-30 08:58:00,60.9,56.1,29.93,SSW,203,9.8,9.8,84,0.00,,,0.00,WUHU216HW,2013-01-30 13:58:00,
2013-01-30 09:03:00,60.9,56.1,29.93,SE,135,0.0,9.8,84,0.00,,,0.00,WUHU216HW,2013-01-30 14:03:00,
2013-01-30 09:08:00,60.9,56.1,29.92,SSE,158,0.0,4.2,84,0.00,,,0.00,WUHU216HW,2013-01-30 14:08:00,
2013-01-30 09:13:00,60.9,56.1,29.91,South,180,5.3,5.3,84,0.00,,,0.00,WUHU216HW,2013-01-30 14:13:00,
2013-01-30 09:18:00,61.1,56.6,29.91,SSE,158,0.0,5.5,85,0.00,,,0.00,WUHU216HW,2013-01-30 14:18:00,
2013-01-30 09:23:00,61.1,56.6,29.91,ESE,113,9.1,9.3,85,0.00,,,0.00,WUHU216HW,2013-01-30 14:23:00,
2013-01-30 09:28:00,61.1,56.6,29.91,SSE,158,5.5,9.3,85,0.00,,,0.00,WUHU216HW,2013-01-30 14:28:00,
2013-01-30 09:33:00,61.1,56.6,29.91,SE,135,4.2,9.1,85,0.00,,,0.00,WUHU216HW,2013-01-30 14:33:00,
2013-01-30 09:38:00,61.3,56.8,29.91,SE,135,0.0,7.3,85,0.00,,,0.00,WUHU216HW,2013-01-30 14:38:00,
2013-01-30 09:43:00,61.5,56.9,29.90,SE,135,5.8,10.9,85,0.00,,,0.00,WUHU216HW,2013-01-30 14:43:00,
2013-01-30 09:48:00,61.5,56.9,29.89,SE,135,6.9,10.9,85,0.00,,,0.00,WUHU216HW,2013-01-30 14:48:00,
2013-01-30 09:53:00,61.7,57.1,29.89,South,180,0.0,6.9,85,0.00,,,0.00,WUHU216HW,2013-01-30 14:53:00,
2013-01-30 09:58:00,61.7,57.1,29.89,SE,135,0.0,6.9,85,0.00,,,0.00,WUHU216HW,2013-01-30 14:58:00,
2013-01-30 10:02:00,61.8,56.9,29.88,SE,135,6.2,12.3,84,0.00,,,0.00,WUHU216HW,2013-01-30 15:02:00,
2013-01-30 10:14:00,62.0,57.1,29.88,South,180,1.1,12.3,84,0.00,,,0.00,WUHU216HW,2013-01-30 15:14:00,
2013-01-30 10:21:00,62.4,57.4,29.88,East,90,7.8,8.2,84,0.00,,,0.00,WUHU216HW,2013-01-30 15:21:00,
2013-01-30 10:26:00,62.4,57.4,29.88,SSE,158,11.6,11.6,84,0.00,,,0.00,WUHU216HW,2013-01-30 15:26:00,
2013-01-30 10:31:00,62.4,57.4,29.88,South,180,0.0,11.6,84,0.00,,,0.00,WUHU216HW,2013-01-30 15:31:00,
2013-01-30 10:36:00,62.7,57.5,29.88,SE,135,0.0,6.0,83,0.00,,,0.00,WUHU216HW,2013-01-30 15:36:00,
2013-01-30 10:41:00,62.7,57.5,29.88,SE,135,7.8,7.8,83,0.00,,,0.00,WUHU216HW,2013-01-30 15:41:00,
2013-01-30 10:46:00,62.7,57.5,29.88,SE,135,0.0,7.8,83,0.00,,,0.00,WUHU216HW,2013-01-30 15:46:00,
2013-01-30 10:51:00,62.7,57.5,29.88,SE,135,6.7,6.7,83,0.00,,,0.00,WUHU216HW,2013-01-30 15:51:00,
2013-01-30 10:56:00,62.7,57.5,29.88,SSE,158,7.8,9.6,83,0.00,,,0.00,WUHU216HW,2013-01-30 15:56:00,
2013-01-30 11:01:00,62.7,57.8,29.88,South,180,3.3,9.6,84,0.00,,,0.00,WUHU216HW,2013-01-30 16:01:00,
2013-01-30 11:06:00,62.7,57.8,29.87,SE,135,8.2,8.7,84,0.00,,,0.00,WUHU216HW,2013-01-30 16:06:00,
2013-01-30 11:11:00,62.9,57.6,29.87,ENE,68,19.2,19.2,83,0.00,,,0.00,WUHU216HW,2013-01-30 16:11:00,
2013-01-30 11:16:00,63.1,57.8,29.87,SE,135,7.3,19.2,83,0.00,,,0.00,WUHU216HW,2013-01-30 16:16:00,
2013-01-30 11:21:00,63.1,57.8,29.87,South,180,7.8,11.4,83,0.00,,,0.00,WUHU216HW,2013-01-30 16:21:00,
2013-01-30 11:26:00,63.1,57.8,29.86,South,180,4.6,10.9,83,0.00,,,0.00,WUHU216HW,2013-01-30 16:26:00,
2013-01-30 11:31:00,63.3,57.7,29.86,South,180,7.8,8.2,82,0.00,,,0.00,WUHU216HW,2013-01-30 16:31:00,
2013-01-30 11:36:00,63.5,57.8,29.86,SE,135,5.1,8.2,82,0.00,,,0.00,WUHU216HW,2013-01-30 16:36:00,
2013-01-30 11:41:00,63.6,58.0,29.85,South,180,0.0,7.8,82,0.00,,,0.00,WUHU216HW,2013-01-30 16:41:00,
2013-01-30 11:46:00,63.6,58.0,29.85,South,180,0.0,9.3,82,0.00,,,0.00,WUHU216HW,2013-01-30 16:46:00,
2013-01-30 11:51:00,63.8,58.2,29.84,SSE,158,0.0,9.3,82,0.00,,,0.00,WUHU216HW,2013-01-30 16:51:00,
2013-01-30 11:56:00,64.0,58.4,29.84,SE,135,2.2,8.2,82,0.00,,,0.00,WUHU216HW,2013-01-30 16:56:00,
2013-01-30 12:01:00,64.0,58.4,29.84,SE,135,4.4,11.6,82,0.00,,,0.00,WUHU216HW,2013-01-30 17:01:00,
2013-01-30 12:07:00,64.0,58.0,29.84,SSW,203,4.2,11.6,81,0.00,,,0.00,WUHU216HW,2013-01-30 17:07:00,
2013-01-30 12:12:00,63.6,58.0,29.83,SSE,158,12.3,12.3,82,0.00,,,0.00,WUHU216HW,2013-01-30 17:12:00,
2013-01-30 12:17:00,63.6,58.0,29.83,SE,135,3.5,12.3,82,0.00,,,0.00,WUHU216HW,2013-01-30 17:17:00,
2013-01-30 12:22:00,63.5,57.8,29.83,SSE,158,0.0,8.0,82,0.00,,,0.00,WUHU216HW,2013-01-30 17:22:00,
2013-01-30 12:27:00,63.3,57.7,29.83,SSE,158,11.6,13.8,82,0.00,,,0.00,WUHU216HW,2013-01-30 17:27:00,
2013-01-30 12:32:00,63.3,57.7,29.82,SSE,158,4.0,13.8,82,0.00,,,0.00,WUHU216HW,2013-01-30 17:32:00,
2013-01-30 12:37:00,63.1,57.5,29.82,ENE,68,10.9,10.9,82,0.00,,,0.00,WUHU216HW,2013-01-30 17:37:00,
2013-01-30 12:42:00,63.1,57.5,29.82,ESE,113,6.4,10.9,82,0.00,,,0.00,WUHU216HW,2013-01-30 17:42:00,
2013-01-30 12:47:00,62.9,57.3,29.81,South,180,1.7,6.4,82,0.00,,,0.00,WUHU216HW,2013-01-30 17:47:00,
2013-01-30 12:52:00,62.7,57.5,29.80,SSE,158,4.4,4.4,83,0.00,,,0.00,WUHU216HW,2013-01-30 17:52:00,
2013-01-30 12:57:00,62.7,57.5,29.80,SSE,158,0.0,10.9,83,0.00,,,0.00,WUHU216HW,2013-01-30 17:57:00,
2013-01-30 13:02:00,62.7,57.8,29.80,SE,135,2.6,10.9,84,0.00,,,0.00,WUHU216HW,2013-01-30 18:02:00,
2013-01-30 13:07:00,62.7,57.8,29.79,SE,135,5.5,7.3,84,0.00,,,0.00,WUHU216HW,2013-01-30 18:07:00,
2013-01-30 13:12:00,62.7,57.8,29.79,SSE,158,0.0,5.5,84,0.00,,,0.00,WUHU216HW,2013-01-30 18:12:00,
2013-01-30 13:17:00,62.6,57.6,29.77,South,180,4.9,7.1,84,0.00,,,0.00,WUHU216HW,2013-01-30 18:17:00,
2013-01-30 13:22:00,62.4,57.4,29.77,SSE,158,0.0,7.1,84,0.00,,,0.00,WUHU216HW,2013-01-30 18:22:00,
2013-01-30 13:27:00,62.2,57.3,29.77,SE,135,9.3,9.3,84,0.02,,,0.02,WUHU216HW,2013-01-30 18:27:00,
2013-01-30 13:32:00,62.2,57.3,29.77,ESE,113,0.0,9.3,84,0.02,,,0.02,WUHU216HW,2013-01-30 18:32:00,
2013-01-30 13:37:00,61.8,57.3,29.76,ESE,113,0.0,9.3,85,0.02,,,0.02,WUHU216HW,2013-01-30 18:37:00,
2013-01-30 13:42:00,61.8,57.3,29.75,SE,135,0.0,0.0,85,0.02,,,0.02,WUHU216HW,2013-01-30 18:42:00,
2013-01-30 13:47:00,61.7,57.1,29.75,SSW,203,0.0,3.3,85,0.02,,,0.02,WUHU216HW,2013-01-30 18:47:00,
2013-01-30 13:52:00,61.7,57.1,29.75,SSE,158,1.1,5.3,85,0.04,,,0.04,WUHU216HW,2013-01-30 18:52:00,
2013-01-30 13:57:00,61.5,57.3,29.75,South,180,0.0,5.3,86,0.04,,,0.04,WUHU216HW,2013-01-30 18:57:00,
2013-01-30 14:02:00,61.5,57.3,29.74,SSE,158,2.2,2.2,86,0.04,,,0.04,WUHU216HW,2013-01-30 19:02:00,
2013-01-30 14:07:00,61.5,57.3,29.75,South,180,0.0,4.2,86,0.04,,,0.04,WUHU216HW,2013-01-30 19:07:00,
2013-01-30 14:12:00,61.3,57.1,29.74,SSE,158,0.0,4.2,86,0.04,,,0.04,WUHU216HW,2013-01-30 19:12:00,
2013-01-30 14:17:00,61.1,57.2,29.74,South,180,1.7,1.7,87,0.06,,,0.06,WUHU216HW,2013-01-30 19:17:00,
2013-01-30 14:22:00,61.1,57.2,29.75,SSW,203,0.0,1.7,87,0.04,,,0.06,WUHU216HW,2013-01-30 19:22:00,
2013-01-30 14:27:00,60.6,56.4,29.78,West,270,0.0,9.8,86,0.14,,,0.10,WUHU216HW,2013-01-30 19:27:00,
2013-01-30 14:32:00,59.5,55.0,29.78,WNW,293,0.0,9.8,85,0.30,,,0.33,WUHU216HW,2013-01-30 19:32:00,
2013-01-30 14:37:00,58.8,54.6,29.77,SW,225,0.0,0.0,86,0.32,,,0.35,WUHU216HW,2013-01-30 19:37:00,
2013-01-30 14:42:00,58.2,54.1,29.76,SW,225,0.0,0.0,86,0.35,,,0.37,WUHU216HW,2013-01-30 19:42:00,
2013-01-30 14:47:00,58.1,53.9,29.77,SW,225,0.0,0.0,86,0.37,,,0.41,WUHU216HW,2013-01-30 19:47:00,
2013-01-30 14:52:00,57.7,53.8,29.77,SW,225,0.0,0.0,87,0.47,,,0.49,WUHU216HW,2013-01-30 19:52:00,
2013-01-30 14:57:00,57.7,53.8,29.77,SW,225,0.0,0.0,87,0.53,,,0.53,WUHU216HW,2013-01-30 19:57:00,
2013-01-30 15:02:00,57.5,53.7,29.75,SW,225,0.0,0.0,87,0.53,,,0.57,WUHU216HW,2013-01-30 20:02:00,
2013-01-30 15:07:00,57.3,53.5,29.75,SW,225,0.0,0.0,87,0.61,,,0.63,WUHU216HW,2013-01-30 20:07:00,
2013-01-30 15:12:00,57.2,53.3,29.75,South,180,0.0,0.0,87,0.65,,,0.69,WUHU216HW,2013-01-30 20:12:00,
2013-01-30 15:17:00,57.0,53.4,29.75,SE,135,0.0,2.2,88,0.69,,,0.75,WUHU216HW,2013-01-30 20:17:00,
2013-01-30 15:22:00,56.8,53.3,29.75,ESE,113,0.0,2.2,88,0.73,,,0.82,WUHU216HW,2013-01-30 20:22:00,
2013-01-30 15:27:00,56.4,52.9,29.76,ESE,113,0.0,0.0,88,0.71,,,0.86,WUHU216HW,2013-01-30 20:27:00,
2013-01-30 15:32:00,56.3,52.7,29.75,SE,135,0.0,0.0,88,0.59,,,0.92,WUHU216HW,2013-01-30 20:32:00,
2013-01-30 15:37:00,56.1,52.5,29.76,SSE,158,1.1,1.1,88,0.55,,,0.92,WUHU216HW,2013-01-30 20:37:00,
2013-01-30 15:42:00,55.9,52.4,29.76,SSE,158,0.0,1.1,88,0.59,,,0.96,WUHU216HW,2013-01-30 20:42:00,
2013-01-30 15:47:00,55.9,52.7,29.74,SE,135,0.0,1.1,89,0.53,,,0.98,WUHU216HW,2013-01-30 20:47:00,
2013-01-30 15:52:00,55.9,52.7,29.73,SE,135,0.0,0.0,89,0.44,,,1.02,WUHU216HW,2013-01-30 20:52:00,
2013-01-30 15:57:00,55.7,52.5,29.73,SE,135,0.0,0.4,89,0.47,,,1.02,WUHU216HW,2013-01-30 20:57:00,
2013-01-30 16:02:00,55.7,52.5,29.73,SE,135,0.0,0.4,89,0.43,,,1.04,WUHU216HW,2013-01-30 21:02:00,
2013-01-30 16:07:00,55.7,52.5,29.72,SE,135,0.0,0.0,89,0.41,,,1.06,WUHU216HW,2013-01-30 21:07:00,
2013-01-30 16:12:00,55.7,52.5,29.72,SE,135,0.0,0.0,89,0.35,,,1.06,WUHU216HW,2013-01-30 21:12:00,
2013-01-30 16:17:00,55.7,52.5,29.71,SE,135,0.0,0.0,89,0.26,,,1.08,WUHU216HW,2013-01-30 21:17:00,
2013-01-30 16:22:00,55.5,52.3,29.72,SE,135,0.0,0.0,89,0.22,,,1.08,WUHU216HW,2013-01-30 21:22:00,
2013-01-30 16:27:00,55.5,52.3,29.72,SE,135,0.0,0.0,89,0.22,,,1.10,WUHU216HW,2013-01-30 21:27:00,
2013-01-30 16:32:00,55.5,52.3,29.71,SE,135,0.0,0.0,89,0.22,,,1.14,WUHU216HW,2013-01-30 21:32:00,
2013-01-30 16:37:00,55.4,52.5,29.69,SE,135,0.0,0.0,90,0.18,,,1.14,WUHU216HW,2013-01-30 21:37:00,
2013-01-30 16:42:00,55.4,52.5,29.68,SE,135,0.0,0.0,90,0.16,,,1.14,WUHU216HW,2013-01-30 21:42:00,
2013-01-30 16:47:00,55.2,52.3,29.68,SE,135,0.0,0.0,90,0.12,,,1.14,WUHU216HW,2013-01-30 21:47:00,
2013-01-30 16:52:00,55.2,52.3,29.68,SE,135,0.0,0.0,90,0.14,,,1.16,WUHU216HW,2013-01-30 21:52:00,
2013-01-30 16:57:00,55.2,52.3,29.70,SE,135,0.0,0.0,90,0.14,,,1.16,WUHU216HW,2013-01-30 21:57:00,
2013-01-30 17:02:00,55.2,52.3,29.69,SE,135,0.0,0.0,90,0.14,,,1.18,WUHU216HW,2013-01-30 22:02:00,
2013-01-30 17:07:00,55.2,52.3,29.69,SE,135,0.0,0.0,90,0.12,,,1.18,WUHU216HW,2013-01-30 22:07:00,
2013-01-30 17:12:00,55.2,52.3,29.68,SE,135,0.0,0.0,90,0.14,,,1.18,WUHU216HW,2013-01-30 22:12:00,
2013-01-30 17:17:00,55.2,52.3,29.68,SE,135,0.0,0.0,90,0.14,,,1.22,WUHU216HW,2013-01-30 22:17:00,
2013-01-30 17:22:00,55.2,52.3,29.68,SE,135,0.0,0.0,90,0.12,,,1.22,WUHU216HW,2013-01-30 22:22:00,
2013-01-30 17:27:00,55.2,52.3,29.68,SE,135,0.0,0.0,90,0.14,,,1.22,WUHU216HW,2013-01-30 22:27:00,
2013-01-30 17:32:00,55.2,52.3,29.68,SE,135,0.0,0.0,90,0.12,,,1.27,WUHU216HW,2013-01-30 22:32:00,
2013-01-30 17:37:00,55.2,52.3,29.68,SE,135,0.0,0.0,90,0.12,,,1.27,WUHU216HW,2013-01-30 22:37:00,
2013-01-30 17:42:00,55.2,52.3,29.68,SE,135,0.0,0.0,90,0.12,,,1.27,WUHU216HW,2013-01-30 22:42:00,
2013-01-30 17:47:00,55.2,52.3,29.67,SE,135,0.0,0.0,90,0.10,,,1.27,WUHU216HW,2013-01-30 22:47:00,
2013-01-30 17:52:00,55.0,52.1,29.67,SE,135,0.0,0.0,90,0.12,,,1.29,WUHU216HW,2013-01-30 22:52:00,
2013-01-30 17:57:00,55.0,52.1,29.67,SE,135,0.0,0.0,90,0.10,,,1.29,WUHU216HW,2013-01-30 22:57:00,
2013-01-30 18:02:00,55.0,52.1,29.67,SE,135,0.0,0.0,90,0.10,,,1.29,WUHU216HW,2013-01-30 23:02:00,
2013-01-30 18:07:00,55.0,52.1,29.67,SE,135,0.0,0.0,90,0.12,,,1.30,WUHU216HW,2013-01-30 23:07:00,
2013-01-30 18:12:00,55.0,52.1,29.67,SE,135,0.0,0.0,90,0.08,,,1.30,WUHU216HW,2013-01-30 23:12:00,
2013-01-30 18:17:00,55.0,52.1,29.67,SE,135,0.0,0.0,90,0.08,,,1.30,WUHU216HW,2013-01-30 23:17:00,
2013-01-30 18:22:00,55.2,52.3,29.66,SE,135,0.0,0.0,90,0.10,,,1.30,WUHU216HW,2013-01-30 23:22:00,
2013-01-30 18:27:00,55.0,52.1,29.67,SE,135,0.0,0.0,90,0.08,,,1.32,WUHU216HW,2013-01-30 23:27:00,
2013-01-30 18:32:00,55.0,52.1,29.67,SE,135,0.0,0.0,90,0.06,,,1.32,WUHU216HW,2013-01-30 23:32:00,
2013-01-30 18:37:00,55.0,52.1,29.66,SE,135,0.0,0.0,90,0.06,,,1.32,WUHU216HW,2013-01-30 23:37:00,
2013-01-30 18:42:00,55.2,52.3,29.67,WNW,293,6.9,6.9,90,0.08,,,1.35,WUHU216HW,2013-01-30 23:42:00,
2013-01-30 18:47:00,54.8,51.9,29.69,NNW,338,0.0,6.9,90,0.06,,,1.35,WUHU216HW,2013-01-30 23:47:00,
2013-01-30 18:52:00,53.7,50.9,29.69,NNW,338,6.7,6.9,90,0.08,,,1.37,WUHU216HW,2013-01-30 23:52:00,
2013-01-30 18:57:00,52.8,50.0,29.70,NNW,338,0.0,6.7,90,0.10,,,1.37,WUHU216HW,2013-01-30 23:57:00,
2013-01-30 19:02:00,52.3,49.4,29.71,NNW,338,1.7,6.7,90,0.10,,,1.39,WUHU216HW,2013-01-31 00:02:00,
2013-01-30 19:07:00,51.6,48.7,29.71,NE,45,4.9,4.9,90,0.10,,,1.41,WUHU216HW,2013-01-31 00:07:00,
2013-01-30 19:12:00,51.0,48.2,29.71,NE,45,0.0,4.9,90,0.10,,,1.41,WUHU216HW,2013-01-31 00:12:00,
2013-01-30 19:17:00,50.5,47.6,29.71,NE,45,0.0,4.9,90,0.12,,,1.43,WUHU216HW,2013-01-31 00:17:00,
2013-01-30 19:22:00,50.1,47.3,29.70,NE,45,0.0,0.0,90,0.10,,,1.43,WUHU216HW,2013-01-31 00:22:00,
2013-01-30 19:28:00,49.6,46.7,29.69,NE,45,0.0,0.0,90,0.12,,,1.45,WUHU216HW,2013-01-31 00:28:00,
2013-01-30 19:33:00,49.1,46.3,29.69,NE,45,0.0,0.0,90,0.14,,,1.47,WUHU216HW,2013-01-31 00:33:00,
2013-01-30 19:38:00,48.7,45.9,29.72,NE,45,0.0,0.0,90,0.12,,,1.47,WUHU216HW,2013-01-31 00:38:00,
2013-01-30 19:43:00,48.3,45.3,29.73,NE,45,0.0,0.0,89,0.12,,,1.47,WUHU216HW,2013-01-31 00:43:00,
2013-01-30 19:48:00,48.0,44.9,29.71,NE,45,0.0,0.0,89,0.10,,,1.47,WUHU216HW,2013-01-31 00:48:00,
2013-01-30 19:53:00,48.0,44.8,29.71,NE,45,0.0,0.0,89,0.08,,,1.47,WUHU216HW,2013-01-31 00:53:00,
2013-01-30 19:58:00,47.6,44.6,29.71,NE,45,0.0,0.0,89,0.08,,,1.47,WUHU216HW,2013-01-31 00:58:00,
2013-01-30 20:03:00,47.4,44.7,29.71,NE,45,0.0,0.0,90,0.08,,,1.47,WUHU216HW,2013-01-31 01:03:00,
2013-01-30 20:08:00,47.4,44.7,29.73,NE,45,0.0,0.0,90,0.06,,,1.47,WUHU216HW,2013-01-31 01:08:00,
2013-01-30 20:13:00,47.3,44.6,29.73,NE,45,0.0,0.0,90,0.04,,,1.47,WUHU216HW,2013-01-31 01:13:00,
2013-01-30 20:18:00,47.1,44.4,29.70,ESE,113,0.0,0.0,90,0.04,,,1.47,WUHU216HW,2013-01-31 01:18:00,
2013-01-30 20:23:00,47.1,44.4,29.71,ESE,113,0.0,0.0,90,0.02,,,1.47,WUHU216HW,2013-01-31 01:23:00,
2013-01-30 20:28:00,47.1,44.4,29.72,ESE,113,0.0,0.0,90,0.02,,,1.47,WUHU216HW,2013-01-31 01:28:00,
2013-01-30 20:33:00,46.9,44.2,29.72,ESE,113,0.0,0.0,90,0.00,,,1.47,WUHU216HW,2013-01-31 01:33:00,
2013-01-30 20:38:00,46.9,44.2,29.71,ESE,113,0.0,0.0,90,0.00,,,1.47,WUHU216HW,2013-01-31 01:38:00,
2013-01-30 20:43:00,46.9,44.2,29.72,ESE,113,0.0,0.0,90,0.00,,,1.47,WUHU216HW,2013-01-31 01:43:00,
2013-01-30 20:48:00,46.9,44.2,29.70,ESE,113,0.0,0.0,90,0.00,,,1.47,WUHU216HW,2013-01-31 01:48:00,
2013-01-30 20:53:00,46.9,44.2,29.70,ESE,113,0.0,0.0,90,0.00,,,1.47,WUHU216HW,2013-01-31 01:53:00,
2013-01-30 20:58:00,46.9,44.2,29.71,ESE,113,0.0,0.0,90,0.00,,,1.47,WUHU216HW,2013-01-31 01:58:00,
2013-01-30 21:03:00,46.7,44.0,29.71,ESE,113,0.0,0.0,90,0.00,,,1.47,WUHU216HW,2013-01-31 02:03:00,
2013-01-30 21:08:00,46.9,44.2,29.71,ESE,113,0.0,0.0,90,0.00,,,1.47,WUHU216HW,2013-01-31 02:08:00,
2013-01-30 21:13:00,46.7,44.0,29.72,ESE,113,0.0,0.0,90,0.00,,,1.47,WUHU216HW,2013-01-31 02:13:00,
2013-01-30 21:18:00,46.7,44.3,29.72,ESE,113,0.0,0.0,91,0.00,,,1.47,WUHU216HW,2013-01-31 02:18:00,
2013-01-30 21:23:00,46.7,44.3,29.71,ESE,113,0.0,0.0,91,0.02,,,1.47,WUHU216HW,2013-01-31 02:23:00,
2013-01-30 21:28:00,46.7,44.3,29.71,ESE,113,0.0,0.0,91,0.02,,,1.49,WUHU216HW,2013-01-31 02:28:00,
2013-01-30 21:33:00,46.7,44.3,29.70,ESE,113,0.0,0.0,91,0.02,,,1.49,WUHU216HW,2013-01-31 02:33:00,
2013-01-30 21:38:00,46.5,44.1,29.70,ESE,113,0.0,0.0,91,0.02,,,1.49,WUHU216HW,2013-01-31 02:38:00,
2013-01-30 21:43:00,46.5,44.1,29.67,West,270,0.0,0.0,91,0.02,,,1.49,WUHU216HW,2013-01-31 02:43:00,
2013-01-30 21:48:00,46.2,43.7,29.67,West,270,0.0,0.0,91,0.02,,,1.49,WUHU216HW,2013-01-31 02:48:00,
2013-01-30 21:53:00,46.0,43.6,29.67,West,270,0.0,0.0,91,0.02,,,1.49,WUHU216HW,2013-01-31 02:53:00,
2013-01-30 21:58:00,46.0,43.6,29.67,West,270,0.0,0.0,91,0.02,,,1.49,WUHU216HW,2013-01-31 02:58:00,
2013-01-30 22:03:00,45.8,43.1,29.68,West,270,0.0,0.0,90,0.02,,,1.49,WUHU216HW,2013-01-31 03:03:00,
2013-01-30 22:08:00,45.6,42.9,29.69,West,270,0.0,0.0,90,0.02,,,1.49,WUHU216HW,2013-01-31 03:08:00,
2013-01-30 22:13:00,45.6,42.9,29.69,West,270,0.0,0.0,90,0.02,,,1.49,WUHU216HW,2013-01-31 03:13:00,
2013-01-30 22:18:00,45.6,42.9,29.68,West,270,0.0,0.0,90,0.02,,,1.49,WUHU216HW,2013-01-31 03:18:00,
2013-01-30 22:23:00,45.5,42.8,29.67,West,270,0.0,0.0,90,0.00,,,1.49,WUHU216HW,2013-01-31 03:23:00,
2013-01-30 22:28:00,45.5,42.8,29.69,West,270,0.0,0.0,90,0.00,,,1.49,WUHU216HW,2013-01-31 03:28:00,
2013-01-30 22:33:00,45.3,42.6,29.68,SSW,203,0.0,0.0,90,0.00,,,1.49,WUHU216HW,2013-01-31 03:33:00,
2013-01-30 22:38:00,45.3,42.6,29.69,SSW,203,0.0,0.0,90,0.00,,,1.49,WUHU216HW,2013-01-31 03:38:00,
2013-01-30 22:43:00,45.1,42.4,29.70,SSW,203,0.0,0.0,90,0.00,,,1.49,WUHU216HW,2013-01-31 03:43:00,
2013-01-30 22:48:00,45.1,42.4,29.69,SSW,203,0.0,0.0,90,0.00,,,1.49,WUHU216HW,2013-01-31 03:48:00,
2013-01-30 22:53:00,44.9,42.2,29.69,SSW,203,0.0,0.0,90,0.00,,,1.49,WUHU216HW,2013-01-31 03:53:00,
2013-01-30 22:58:00,44.7,42.0,29.70,SSW,203,0.0,0.0,90,0.00,,,1.49,WUHU216HW,2013-01-31 03:58:00,
2013-01-30 23:03:00,44.6,41.9,29.70,South,180,0.0,0.0,90,0.00,,,1.49,WUHU216HW,2013-01-31 04:03:00,
2013-01-30 23:08:00,44.4,41.7,29.69,South,180,4.9,4.9,90,0.00,,,1.49,WUHU216HW,2013-01-31 04:08:00,
2013-01-30 23:13:00,44.4,41.7,29.69,SSE,158,0.0,4.9,90,0.00,,,1.49,WUHU216HW,2013-01-31 04:13:00,
2013-01-30 23:18:00,44.2,41.5,29.69,SSE,158,0.0,0.0,90,0.00,,,1.49,WUHU216HW,2013-01-31 04:18:00,
2013-01-30 23:23:00,44.0,41.3,29.69,SSE,158,0.0,0.0,90,0.00,,,1.49,WUHU216HW,2013-01-31 04:23:00,
2013-01-30 23:28:00,43.8,41.1,29.71,SSE,158,0.0,0.0,90,0.00,,,1.49,WUHU216HW,2013-01-31 04:28:00,
2013-01-30 23:33:00,43.7,41.0,29.70,SE,135,0.0,0.0,90,0.00,,,1.49,WUHU216HW,2013-01-31 04:33:00,
2013-01-30 23:38:00,43.5,40.8,29.70,SE,135,0.0,0.0,90,0.00,,,1.49,WUHU216HW,2013-01-31 04:38:00,
2013-01-30 23:43:00,43.5,40.8,29.70,SE,135,0.0,0.0,90,0.00,,,1.49,WUHU216HW,2013-01-31 04:43:00,
2013-01-30 23:48:00,43.3,40.6,29.71,WSW,248,0.0,0.0,90,0.00,,,1.49,WUHU216HW,2013-01-31 04:48:00,
2013-01-30 23:53:00,43.1,40.4,29.72,WSW,248,0.0,0.0,90,0.00,,,1.49,WUHU216HW,2013-01-31 04:53:00,
2013-01-30 23:58:00,42.9,40.2,29.73,NNW,338,0.0,0.0,90,0.00,,,1.49,WUHU216HW,2013-01-31 04:58:00,